Wind_Speed
19 18 18 18 19 24 26 29 32 31 27 23 22 20 18 17 19 21 24 28 28 26 24 23 22 22 22 21 20 20 20 21 22 22 21 20 19 19
15 16 17 17 15 18 21 22 23 26 25 23 23 20 19 18 16 18 20 26 28 27 25 24 25 26 24 23 21 20 20 19 20 20 20 20 18 17
15 15 16 14 12 14 15 17 20 24 24 24 25 23 22 21 21 18 17 21 26 29 29 28 29 29 27 25 23 22 21 21 21 21 20 20 20 20
16 15 15 16 14 13 13 15 18 19 25 30 30 27 26 24 23 23 22 21 22 25 28 29 29 30 28 26 25 24 24 24 23 23 23 23 24 24
18 18 17 17 17 18 17 15 16 20 23 25 28 28 29 29 28 26 25 25 24 24 24 25 27 27 27 26 25 25 25 26 25 25 26 27 28 27
21 23 22 20 19 18 20 21 19 20 22 23 25 26 29 31 30 30 30 29 28 27 26 27 28 28 28 26 26 26 26 27 28 28 28 27 27 26
24 26 26 24 21 21 21 21 21 21 23 24 25 24 24 27 32 32 32 32 33 31 31 30 28 28 30 30 30 29 30 30 31 31 31 30 28 26
27 27 29 28 23 22 24 24 24 24 25 26 26 27 27 28 32 35 35 32 32 35 34 31 29 31 31 30 31 32 31 31 31 32 32 32 32 30
27 27 28 30 28 26 25 26 25 26 26 25 24 25 26 28 31 31 35 37 37 36 35 35 33 34 34 32 31 32 34 34 34 33 34 34 34 34
23 25 27 28 29 28 27 26 26 27 27 26 24 24 25 24 25 30 32 36 39 42 39 37 37 36 34 33 33 33 34 35 36 36 36 36 37 37
21 23 26 27 28 28 28 28 27 27 28 28 28 27 27 28 28 28 32 37 37 42 43 38 37 36 33 33 34 35 35 36 37 37 38 38 38 38
22 25 25 25 25 24 25 26 25 24 25 24 26 27 27 27 28 27 26 32 39 42 44 41 40 41 40 36 34 34 36 37 37 37 37 37 37 37
26 28 29 27 27 25 23 22 22 21 21 21 22 23 23 23 22 22 23 30 36 39 45 44 41 42 42 40 40 38 38 39 40 40 40 40 40 40
29 32 34 34 31 28 25 22 20 18 17 18 19 19 20 21 21 23 22 20 28 32 31 33 34 37 40 40 40 41 41 43 44 45 46 47 46 45
30 32 34 37 37 35 31 26 22 20 17 17 18 20 21 23 25 26 30 26 24 28 33 34 34 33 33 35 36 38 40 41 43 44 44 45 46 47
27 33 37 35 35 35 33 30 27 23 19 18 20 21 23 24 25 26 29 29 28 30 32 35 35 37 37 39 40 41 42 43 45 47 47 46 45 45
16 12 11 19 23 25 27 26 24 22 20 20 22 24 25 26 26 26 27 27 27 28 29 31 33 34 36 38 41 42 43 44 44 43 43 44 47 48
8 7 8 11 11 15 20 21 20 18 17 18 20 21 22 23 23 23 21 21 23 25 27 29 31 33 35 37 39 40 42 43 44 43 41 41 41 43
8 9 11 6 5 10 14 17 16 13 11 12 14 16 16 17 17 18 21 24 27 29 31 32 34 35 36 36 38 40 41 42 43 44 44 44 43 44
10 10 12 10 11 12 11 11 10 9 7 8 11 13 14 16 18 20 23 25 28 30 31 32 34 35 36 36 37 39 41 41 42 43 44 45 45 45
10 12 13 15 14 13 12 9 6 2 4 7 10 12 15 18 21 24 26 28 30 32 34 36 37 38 39 39 39 39 41 42 43 43 43 44 44 44
18 18 19 18 17 15 12 8 5 3 4 6 9 12 15 19 22 25 27 29 31 33 34 35 36 37 37 37 39 40 41 43 43 44 44 44 43 43
22 20 19 18 17 15 13 10 9 8 8 10 13 15 18 20 22 23 23 24 25 28 29 31 32 33 33 33 35 36 38 38 40 41 41 41 41 41
Wind_Direction
283 266 266 268 265 258 260 260 247 229 224 228 229 227 232 237 239 239 235 228 228 228 229 234 238 241 248 251 247 241 242 243 245 244 243 246 249 255
276 260 261 265 266 271 265 256 225 222 215 227 233 231 230 232 235 236 232 230 231 232 233 236 241 243 251 253 246 243 242 239 238 242 246 248 252 261
257 257 254 252 265 270 262 235 223 216 214 229 236 237 239 238 237 237 235 231 233 233 233 236 239 243 248 249 246 244 243 243 245 248 253 258 260 262
257 254 245 242 249 254 253 229 223 217 219 232 239 239 239 241 242 239 238 236 233 232 233 237 238 241 244 246 246 244 243 245 248 253 258 258 259 259
253 254 252 249 247 244 235 230 231 229 228 233 237 242 244 244 243 243 240 238 237 235 234 238 240 241 242 243 244 244 245 248 252 256 258 256 253 254
249 253 255 254 250 246 237 229 234 236 233 231 239 243 247 245 241 239 239 239 240 244 242 240 242 243 246 247 249 250 252 253 254 254 253 253 254 256
247 247 250 251 249 246 241 235 234 234 236 237 243 249 251 247 240 237 238 241 241 242 241 243 246 249 249 248 247 248 250 252 253 254 256 257 257 258
253 247 246 249 249 247 242 238 239 243 243 244 247 250 247 251 249 247 244 242 241 242 242 244 247 249 249 250 250 250 250 250 252 255 257 258 258 258
256 251 246 246 247 246 245 244 243 244 248 248 251 253 257 257 253 255 252 245 245 244 243 250 249 248 250 254 255 254 253 252 253 256 258 260 260 262
261 254 249 246 246 247 249 249 249 250 251 253 253 255 259 261 251 254 253 248 249 246 248 253 252 251 250 252 255 255 255 255 256 258 259 262 263 264
268 256 251 247 248 250 251 252 254 255 256 256 257 258 256 257 257 265 261 247 247 247 251 249 251 251 252 256 260 259 257 257 256 257 260 263 264 264
263 257 250 248 248 250 253 254 257 258 260 260 258 258 258 261 264 265 262 244 235 242 248 247 250 254 261 261 260 260 261 259 257 257 258 260 261 262
260 256 255 253 249 245 245 250 253 255 259 263 264 263 260 259 257 251 252 253 243 244 246 246 251 260 263 260 261 262 259 258 259 261 261 262 263 263
268 260 253 249 244 240 238 241 244 246 249 253 257 257 255 249 245 243 250 251 244 246 256 257 253 254 256 255 259 263 264 263 262 263 264 265 265 265
280 269 258 250 240 237 237 239 242 243 247 253 256 254 251 248 245 244 247 254 257 258 273 278 269 261 259 259 260 261 264 266 267 268 267 265 265 265
284 271 260 248 237 231 232 235 240 244 249 249 251 253 253 253 253 253 256 261 260 260 263 266 266 270 272 271 268 266 266 268 269 270 270 270 267 266
329 307 240 219 216 220 227 230 234 241 251 256 255 253 251 251 255 260 263 265 267 270 270 270 270 272 273 273 273 272 272 272 273 275 275 274 271 268
13 55 120 153 188 207 212 215 222 237 250 253 253 255 255 257 262 266 268 270 274 276 277 277 278 278 278 276 274 275 275 275 276 278 279 280 278 275
66 88 103 105 145 167 182 196 210 223 235 253 260 260 260 265 268 272 275 278 280 281 281 281 281 280 280 279 278 276 275 275 276 277 277 277 276 275
77 83 106 118 122 135 157 177 192 208 230 257 274 275 278 282 284 285 285 285 284 283 283 283 282 282 280 279 278 278 277 276 276 277 278 278 277 275
91 87 96 94 101 109 118 130 142 184 262 281 292 299 299 297 294 293 292 292 291 290 289 288 287 284 282 279 278 277 277 277 276 276 276 276 276 275
94 97 88 82 88 95 97 97 87 49 2 339 325 318 314 310 308 305 302 300 299 297 295 292 289 287 285 282 280 279 277 275 273 272 272 271 272 273
87 91 90 86 85 86 85 83 78 62 37 12 359 350 342 334 329 325 320 317 314 311 306 300 294 291 287 284 281 280 278 276 275 274 273 274 275 275
Height
5800 5800 5800 5801 5802 5803 5805 5806 5809 5813 5815 5818 5821 5825 5828 5830 5832 5833 5835 5838 5841 5845 5848 5850 5852 5854 5856 5858 5860 5862 5863 5864 5865 5868 5870 5871 5872 5873
5795 5796 5796 5796 5797 5798 5799 5798 5801 5806 5811 5814 5817 5820 5824 5826 5827 5829 5831 5833 5837 5840 5843 5846 5849 5850 5852 5853 5855 5857 5858 5860 5861 5863 5865 5866 5866 5866
5790 5791 5791 5792 5792 5793 5795 5796 5799 5803 5806 5811 5813 5815 5818 5821 5823 5825 5827 5829 5832 5835 5838 5841 5843 5845 5847 5848 5851 5853 5854 5856 5857 5858 5859 5860 5860 5862
5786 5786 5787 5788 5788 5788 5790 5793 5796 5798 5802 5805 5807 5810 5812 5816 5818 5820 5822 5824 5826 5829 5832 5835 5837 5839 5841 5843 5845 5847 5849 5850 5852 5853 5854 5855 5856 5857
5782 5783 5784 5784 5784 5784 5786 5790 5792 5794 5797 5799 5800 5803 5806 5809 5812 5815 5817 5819 5821 5824 5826 5829 5831 5832 5834 5837 5839 5841 5843 5845 5846 5847 5848 5849 5850 5851
5777 5778 5780 5780 5780 5781 5782 5784 5786 5788 5790 5793 5795 5797 5799 5802 5805 5808 5810 5813 5816 5818 5820 5822 5824 5826 5829 5831 5832 5834 5836 5837 5839 5840 5841 5843 5843 5844
5771 5772 5773 5774 5774 5776 5778 5780 5781 5783 5785 5787 5790 5791 5792 5795 5798 5799 5802 5805 5808 5812 5813 5815 5818 5821 5822 5824 5825 5827 5828 5830 5831 5832 5834 5835 5836 5836
5765 5765 5766 5768 5768 5770 5772 5774 5776 5778 5780 5781 5783 5785 5786 5788 5790 5792 5795 5799 5801 5804 5807 5810 5813 5813 5814 5817 5819 5820 5821 5822 5823 5824 5825 5826 5827 5828
5757 5758 5759 5761 5762 5763 5766 5768 5769 5772 5775 5776 5777 5777 5779 5781 5782 5785 5786 5790 5793 5795 5800 5802 5804 5804 5806 5808 5810 5811 5812 5814 5814 5815 5816 5817 5818 5819
5748 5749 5751 5752 5754 5756 5759 5761 5763 5765 5767 5769 5770 5771 5772 5773 5775 5776 5777 5780 5784 5786 5790 5793 5794 5796 5799 5800 5802 5803 5803 5804 5805 5805 5806 5807 5808 5809
5740 5742 5744 5745 5747 5749 5752 5754 5756 5759 5760 5761 5762 5763 5764 5766 5767 5768 5768 5770 5773 5776 5779 5783 5784 5786 5790 5791 5792 5792 5792 5793 5795 5796 5797 5798 5798 5798
5734 5735 5737 5739 5740 5743 5745 5747 5748 5750 5752 5754 5755 5757 5758 5759 5759 5760 5760 5762 5765 5767 5769 5773 5774 5776 5779 5782 5783 5783 5783 5783 5784 5785 5786 5787 5787 5787
5725 5726 5727 5729 5732 5736 5738 5740 5741 5743 5745 5747 5748 5750 5751 5752 5753 5754 5754 5755 5758 5759 5761 5763 5765 5767 5769 5772 5772 5773 5774 5774 5774 5774 5774 5775 5776 5776
5714 5714 5715 5719 5723 5726 5730 5734 5736 5738 5739 5740 5742 5744 5746 5746 5747 5747 5748 5748 5750 5751 5752 5754 5754 5755 5757 5760 5760 5760 5761 5763 5763 5763 5762 5762 5763 5763
5702 5700 5700 5704 5710 5716 5722 5727 5731 5734 5735 5736 5737 5738 5740 5741 5741 5741 5742 5742 5743 5744 5744 5744 5744 5744 5746 5747 5748 5748 5749 5750 5750 5749 5749 5749 5749 5749
5688 5684 5684 5688 5696 5704 5712 5719 5724 5727 5730 5731 5732 5733 5734 5734 5734 5734 5734 5734 5735 5736 5736 5736 5735 5735 5735 5735 5736 5736 5736 5737 5736 5735 5735 5736 5735 5735
5680 5674 5674 5680 5688 5697 5705 5712 5717 5721 5724 5725 5726 5727 5728 5728 5728 5728 5727 5726 5726 5727 5726 5726 5725 5725 5725 5725 5723 5722 5722 5723 5723 5722 5722 5722 5721 5721
5681 5679 5679 5683 5688 5694 5701 5707 5713 5717 5718 5719 5721 5722 5722 5722 5722 5722 5721 5721 5720 5720 5719 5718 5718 5716 5716 5714 5713 5712 5711 5710 5710 5710 5710 5711 5710 5708
5684 5684 5685 5688 5691 5694 5699 5705 5710 5713 5715 5716 5717 5718 5718 5718 5718 5718 5717 5716 5714 5713 5711 5709 5708 5706 5705 5703 5701 5700 5699 5697 5696 5696 5695 5696 5696 5695
5688 5688 5689 5691 5693 5697 5701 5705 5709 5713 5714 5716 5716 5716 5715 5714 5714 5713 5711 5710 5708 5705 5703 5700 5698 5696 5694 5692 5690 5687 5685 5685 5684 5682 5681 5680 5680 5680
5692 5693 5695 5697 5699 5701 5704 5708 5711 5713 5714 5715 5715 5714 5712 5711 5709 5707 5705 5702 5699 5696 5693 5690 5687 5685 5682 5680 5678 5676 5673 5671 5669 5668 5667 5667 5666 5666
5698 5700 5702 5703 5704 5706 5709 5711 5713 5714 5714 5714 5713 5711 5709 5707 5704 5700 5697 5693 5690 5686 5682 5678 5675 5671 5669 5666 5664 5661 5659 5657 5655 5654 5653 5652 5651 5651
5708 5708 5709 5710 5711 5712 5713 5714 5715 5715 5715 5714 5712 5709 5706 5702 5698 5695 5691 5686 5682 5678 5673 5668 5664 5660 5657 5654 5652 5649 5646 5645 5643 5641 5640 5638 5638 5637